• In Russia
  • List of Countries
  • For 7 days
  • Water Temperature
  • Satellite Maps
  • Weather Map
  • Weather Widgets
  • user-avatar
    Login

    Hourly Weather Eisenstadt

    Today, 19 June, Wednesday

    Time Temperature Precipitation Wind Pressure Humidity
    00:00 +19°C° 0 mm 1 mps 721 mmHg 89%
    01:00 +19°C° 0 mm 1 mps 721 mmHg 88%
    02:00 +18°C° 0 mm 1 mps 721 mmHg 89%
    03:00 +18°C° 0 mm 1 mps 721 mmHg 90%
    04:00 +18°C° 0 mm 1 mps 721 mmHg 90%
    05:00 +19°C° 0 mm 1 mps 721 mmHg 86%
    06:00 +21°C° 0 mm 1 mps 721 mmHg 82%
    07:00 +22°C° 0 mm 1 mps 721 mmHg 78%
    08:00 +24°C° 0.1 mm 1 mps 721 mmHg 73%
    09:00 +25°C° 0.1 mm 2 mps 721 mmHg 67%
    10:00 +26°C° 0.1 mm 2 mps 721 mmHg 62%
    11:00 +27°C° 0.2 mm 2 mps 721 mmHg 58%
    12:00 +28°C° 0.2 mm 3 mps 721 mmHg 55%
    13:00 +29°C° 0.2 mm 3 mps 720 mmHg 52%
    14:00 +28°C° 0.8 mm 3 mps 720 mmHg 57%
    15:00 +27°C° 0.8 mm 3 mps 720 mmHg 62%
    16:00 +27°C° 0.8 mm 2 mps 720 mmHg 67%
    17:00 +25°C° 1.2 mm 2 mps 720 mmHg 72%
    18:00 +24°C° 1.2 mm 2 mps 719 mmHg 77%
    19:00 +23°C° 1.2 mm 1 mps 719 mmHg 83%
    20:00 +22°C° 0.2 mm 1 mps 719 mmHg 83%
    21:00 +21°C° 0.2 mm 1 mps 719 mmHg 84%
    22:00 +20°C° 0.2 mm 1 mps 719 mmHg 85%
    23:00 +19°C° 0.2 mm 1 mps 719 mmHg 85%

    Tomorrow, 20 June, Thursday

    Time Temperature Precipitation Wind Pressure Humidity
    00:00 +19°C° 0.2 mm 1 mps 719 mmHg 86%
    01:00 +18°C° 0.2 mm 1 mps 719 mmHg 86%
    02:00 +18°C° 0 mm 1 mps 719 mmHg 87%
    03:00 +18°C° 0 mm 1 mps 719 mmHg 87%
    04:00 +18°C° 0 mm 1 mps 719 mmHg 87%
    05:00 +19°C° 0 mm 1 mps 719 mmHg 83%
    06:00 +21°C° 0 mm 1 mps 720 mmHg 80%
    07:00 +21°C° 0 mm 0 mps 720 mmHg 76%
    08:00 +25°C° 0 mm 1 mps 720 mmHg 69%
    09:00 +26°C° 0 mm 1 mps 720 mmHg 62%
    10:00 +28°C° 0 mm 1 mps 720 mmHg 55%
    11:00 +28°C° 0.2 mm 1 mps 720 mmHg 55%
    12:00 +28°C° 0.2 mm 2 mps 720 mmHg 54%
    13:00 +29°C° 0.2 mm 2 mps 720 mmHg 54%
    14:00 +28°C° 1 mm 2 mps 719 mmHg 58%
    15:00 +27°C° 1 mm 2 mps 719 mmHg 63%
    16:00 +26°C° 1 mm 2 mps 719 mmHg 68%
    17:00 +25°C° 0.2 mm 1 mps 719 mmHg 70%
    18:00 +24°C° 0.2 mm 1 mps 719 mmHg 73%
    19:00 +23°C° 0.2 mm 1 mps 719 mmHg 76%
    20:00 +21°C° 1 mm 2 mps 720 mmHg 81%
    21:00 +19°C° 1 mm 3 mps 720 mmHg 85%
    22:00 +18°C° 1 mm 4 mps 720 mmHg 89%
    23:00 +18°C° 0.8 mm 3 mps 721 mmHg 90%

    Day after tomorrow, 21 June, Friday

    Time Temperature Precipitation Wind Pressure Humidity
    00:00 +18°C° 0.8 mm 3 mps 721 mmHg 91%
    01:00 +18°C° 0.8 mm 3 mps 721 mmHg 91%
    02:00 +17°C° 0.6 mm 2 mps 721 mmHg 91%
    03:00 +17°C° 0.6 mm 2 mps 721 mmHg 90%
    04:00 +17°C° 0.6 mm 2 mps 722 mmHg 89%
    05:00 +18°C° 0 mm 2 mps 722 mmHg 86%
    06:00 +19°C° 0 mm 2 mps 722 mmHg 83%
    07:00 +21°C° 0 mm 2 mps 723 mmHg 80%
    08:00 +22°C° 0.2 mm 3 mps 723 mmHg 75%
    09:00 +24°C° 0.2 mm 3 mps 723 mmHg 70%
    10:00 +25°C° 0.2 mm 3 mps 723 mmHg 65%
    11:00 +26°C° 0.6 mm 3 mps 723 mmHg 64%
    12:00 +26°C° 0.6 mm 2 mps 723 mmHg 63%
    13:00 +27°C° 0.6 mm 2 mps 722 mmHg 62%
    14:00 +26°C° 1 mm 2 mps 722 mmHg 65%
    15:00 +26°C° 1 mm 2 mps 722 mmHg 68%
    16:00 +25°C° 1 mm 1 mps 722 mmHg 71%
    17:00 +24°C° 0.3 mm 1 mps 722 mmHg 75%
    18:00 +23°C° 0.3 mm 1 mps 721 mmHg 79%
    19:00 +21°C° 0.3 mm 1 mps 721 mmHg 84%
    20:00 +21°C° 0.5 mm 1 mps 722 mmHg 84%
    21:00 +20°C° 0.5 mm 1 mps 722 mmHg 84%
    22:00 +18°C° 0.5 mm 2 mps 722 mmHg 85%
    23:00 +18°C° 0.3 mm 2 mps 722 mmHg 85%

    22 June, Saturday

    Time Temperature Precipitation Wind Pressure Humidity
    00:00 +19°C° 0.3 mm 1 mps 722 mmHg 84%
    01:00 +19°C° 0.3 mm 1 mps 722 mmHg 84%
    02:00 +19°C° 0 mm 1 mps 722 mmHg 84%
    03:00 +18°C° 0 mm 2 mps 722 mmHg 84%
    04:00 +18°C° 0 mm 2 mps 721 mmHg 84%
    05:00 +18°C° 0 mm 2 mps 721 mmHg 81%
    06:00 +20°C° 0 mm 2 mps 722 mmHg 78%
    07:00 +21°C° 0 mm 2 mps 722 mmHg 74%
    08:00 +23°C° 0 mm 2 mps 722 mmHg 69%
    09:00 +25°C° 0 mm 2 mps 722 mmHg 64%
    10:00 +26°C° 0 mm 2 mps 722 mmHg 59%
    11:00 +26°C° 0.4 mm 2 mps 722 mmHg 61%
    12:00 +26°C° 0.4 mm 2 mps 721 mmHg 64%
    13:00 +26°C° 0.4 mm 1 mps 721 mmHg 66%
    14:00 +25°C° 1.3 mm 1 mps 721 mmHg 70%
    15:00 +25°C° 1.3 mm 1 mps 720 mmHg 74%
    16:00 +24°C° 1.3 mm 1 mps 720 mmHg 78%
    17:00 +24°C° 0.5 mm 1 mps 720 mmHg 81%
    18:00 +23°C° 0.5 mm 1 mps 720 mmHg 83%
    19:00 +22°C° 0.5 mm 1 mps 720 mmHg 86%
    20:00 +21°C° 0.7 mm 1 mps 720 mmHg 87%
    21:00 +20°C° 0.7 mm 1 mps 720 mmHg 89%
    22:00 +19°C° 0.7 mm 1 mps 720 mmHg 90%
    23:00 +19°C° 0.3 mm 1 mps 720 mmHg 90%

    23 June, Sunday

    Time Temperature Precipitation Wind Pressure Humidity
    00:00 +18°C° 0.3 mm 1 mps 720 mmHg 91%
    01:00 +18°C° 0.3 mm 1 mps 721 mmHg 92%
    02:00 +18°C° 0 mm 1 mps 721 mmHg 91%
    03:00 +16°C° 0 mm 1 mps 721 mmHg 90%
    04:00 +16°C° 0 mm 2 mps 721 mmHg 90%
    05:00 +18°C° 0 mm 2 mps 721 mmHg 86%
    06:00 +19°C° 0 mm 2 mps 722 mmHg 82%
    07:00 +20°C° 0 mm 3 mps 722 mmHg 79%
    08:00 +22°C° 0 mm 3 mps 723 mmHg 70%
    09:00 +25°C° 0 mm 3 mps 723 mmHg 61%
    10:00 +27°C° 0 mm 3 mps 723 mmHg 53%
    11:00 +27°C° 0.1 mm 3 mps 723 mmHg 52%
    12:00 +27°C° 0.1 mm 3 mps 723 mmHg 51%
    13:00 +27°C° 0.1 mm 3 mps 723 mmHg 50%
    14:00 +27°C° 0.2 mm 3 mps 723 mmHg 53%
    15:00 +27°C° 0.2 mm 2 mps 723 mmHg 56%
    16:00 +27°C° 0.2 mm 2 mps 723 mmHg 59%
    17:00 +25°C° 0.2 mm 2 mps 723 mmHg 65%
    18:00 +24°C° 0.2 mm 2 mps 724 mmHg 71%
    19:00 +21°C° 0.2 mm 2 mps 724 mmHg 77%
    20:00 +20°C° 0.1 mm 2 mps 724 mmHg 81%
    21:00 +19°C° 0.1 mm 2 mps 725 mmHg 85%
    22:00 +17°C° 0.1 mm 2 mps 725 mmHg 90%
    23:00 +16°C° 0 mm 2 mps 726 mmHg 90%

    24 June, Monday

    Time Temperature Precipitation Wind Pressure Humidity
    00:00 +16°C° 0 mm 2 mps 726 mmHg 90%
    01:00 +15°C° 0 mm 2 mps 726 mmHg 90%
    02:00 +15°C° 0 mm 2 mps 726 mmHg 90%
    03:00 +15°C° 0 mm 2 mps 726 mmHg 91%
    04:00 +14°C° 0 mm 2 mps 726 mmHg 91%
    05:00 +15°C° 0 mm 2 mps 727 mmHg 87%
    06:00 +17°C° 0 mm 3 mps 727 mmHg 82%
    07:00 +18°C° 0 mm 3 mps 727 mmHg 78%
    08:00 +19°C° 0 mm 3 mps 728 mmHg 70%
    09:00 +20°C° 0 mm 3 mps 728 mmHg 63%
    10:00 +22°C° 0 mm 3 mps 728 mmHg 56%
    11:00 +22°C° 0 mm 3 mps 728 mmHg 53%
    12:00 +24°C° 0 mm 3 mps 728 mmHg 51%
    13:00 +25°C° 0 mm 3 mps 728 mmHg 48%
    14:00 +25°C° 0 mm 3 mps 728 mmHg 49%
    15:00 +25°C° 0 mm 3 mps 728 mmHg 50%
    16:00 +25°C° 0 mm 3 mps 728 mmHg 52%
    17:00 +22°C° 0 mm 3 mps 728 mmHg 59%
    18:00 +21°C° 0 mm 2 mps 728 mmHg 66%
    19:00 +20°C° 0 mm 1 mps 728 mmHg 73%
    20:00 +19°C° 0 mm 1 mps 728 mmHg 75%
    21:00 +18°C° 0 mm 1 mps 728 mmHg 77%
    22:00 +16°C° 0 mm 1 mps 729 mmHg 79%
    23:00 +16°C° 0 mm 1 mps 729 mmHg 78%
    Show more